CAPE
805 1019 2021 2052 2527 906 251 118 23 9 29 1 1 3 2 82 527 621 247 342 432 460 838 1222 2025 1805 1601 1578 2353 2261 1773 1731 1601 1720 2008 2306 2462 2248 2068 2027 1830 1576 1367 1296 1385 1459 1298 1301 1303
1470 1596 2271 2468 1419 254 259 143 90 285 256 51 0 43 0 304 418 254 323 389 507 198 833 1460 2514 1915 2089 1350 2646 2536 2104 1927 1772 2021 1952 2283 2561 2346 1916 1612 1630 1712 1418 1664 1450 1438 1265 1136 1297
1798 1725 2519 1604 132 315 340 331 338 425 392 209 26 0 134 360 278 288 295 381 575 133 458 2173 2788 2321 1974 1925 2364 2710 2551 2289 1868 1835 1825 1993 1906 2336 1975 1456 1546 1671 1698 1731 1659 1485 1406 1155 1057
1956 2610 2560 829 252 361 368 338 492 622 518 464 326 390 220 271 202 356 314 351 465 292 518 2560 3103 2688 2589 2424 2412 2967 2882 2696 2246 2254 1834 1686 1914 1872 1714 1584 1669 1763 1613 1750 1720 1491 1669 1197 1002
1819 848 508 458 394 389 399 428 353 535 697 623 612 602 498 454 353 396 360 332 492 602 961 1756 3246 3239 3235 3283 2862 3342 3121 3101 2702 2311 1677 1790 1949 2079 1637 1678 1508 1738 1369 1312 1320 1542 1574 1293 970
1237 318 602 369 356 359 382 416 436 480 440 533 753 1132 1147 742 339 346 311 398 491 1097 1092 1294 3017 3225 3333 3192 3028 3122 2813 2623 2660 2387 2010 1877 2129 1842 2078 1715 1681 1511 1237 1505 1179 1372 1475 1284 1072
897 762 432 262 337 259 240 278 357 489 500 503 625 1357 1543 747 324 277 241 235 474 851 1189 1690 1469 2276 2532 3091 3065 3042 2968 2766 2895 2625 2651 2313 1740 1702 1697 1723 1731 1448 1596 1335 1434 1501 1091 1302 1274
679 478 211 192 235 120 43 150 151 200 114 441 534 641 2092 1078 310 239 217 221 585 910 1354 1238 1942 1800 1807 2188 3112 2697 2647 2803 2179 2208 2144 1648 1685 1605 1697 1658 1529 1572 1524 1571 1560 1267 833 1241 1208
126 561 308 208 138 97 41 5 0 21 45 78 217 879 1520 1160 361 254 185 180 521 780 1254 1342 1692 2822 2851 2482 2214 2830 2556 2401 2264 2180 1920 1980 1278 1551 1705 1371 1620 1584 1519 1647 1477 1151 1157 1543 1213
100 127 77 104 105 29 0 0 0 2 0 7 231 1160 1791 1031 577 390 244 212 430 595 1062 1077 1663 2181 2356 1971 2778 2048 1524 1684 1642 1847 1964 1496 1494 1132 1032 1749 1697 1632 1645 1601 1526 1313 1227 1424 527
69 3 1 1 35 3 0 0 0 4 10 10 0 1286 1806 1242 873 701 446 388 449 658 944 1126 1786 2351 2093 2009 2245 2158 2050 2354 2301 2385 2022 1536 2084 1648 1341 1843 1438 1515 1622 1169 1280 1176 764 154 290
0 0 0 0 0 0 0 0 0 0 0 0 0 208 1779 1655 1351 1153 884 744 684 714 766 940 1267 2428 2200 2187 2076 1678 1336 1456 1666 2112 2756 2749 2676 1767 1805 2156 319 1195 1247 486 1044 241 145 68 79
0 0 0 0 0 0 0 0 0 0 0 0 0 4 1532 1745 1863 1693 1468 1024 944 881 871 1068 1403 3011 2682 2650 1215 1773 1056 854 1068 2229 2868 2262 2077 1990 1917 1364 1857 556 1031 485 671 1307 349 916 109
0 0 0 0 0 0 0 0 0 0 0 0 0 0 417 1506 1982 2102 2116 1639 1110 1014 985 1234 1670 2526 2094 2617 2943 2532 1211 1077 827 1585 1587 2103 2396 2557 2438 1974 2437 1715 755 477 802 1606 1388 1332 182
0 0 0 0 0 0 0 0 0 0 0 0 0 0 45 1170 1515 2100 2263 2113 1472 1391 1288 1500 1903 2031 2638 3168 2386 2185 1448 1197 1031 1017 2794 2412 2937 2956 2677 2149 1901 1685 704 1381 1634 1389 709 421 281
0 0 0 0 0 0 0 0 0 0 0 0 0 0 56 362 1386 1838 2190 2298 1925 1740 2209 2268 1934 2001 2375 3038 2659 2173 1522 1200 1175 858 2443 3102 3213 2726 2699 1953 1696 1648 2006 532 526 1304 608 357 243
0 0 0 0 0 0 0 0 0 0 0 0 0 0 101 583 859 1946 2061 2220 2046 1961 2843 3147 3219 2213 2556 3466 2387 2415 2983 1702 1233 1237 1213 3322 2337 2040 1858 980 1449 2395 825 1357 655 360 451 492 401
0 0 0 0 0 0 0 0 0 0 0 0 0 0 83 521 995 2010 2146 2179 2193 1876 2072 2880 3057 3738 3999 2914 3313 1984 1525 1427 1320 1329 1247 3051 2349 2577 1952 1080 1782 2135 1055 1936 1545 1911 1233 632 408
0 0 0 0 0 0 0 0 0 0 0 0 0 108 376 536 1314 2231 2087 2078 2269 2155 2057 2862 3146 4480 3478 2723 2518 2309 1752 1640 1357 1207 2485 2795 2063 2918 3557 1766 2022 2160 1804 2212 2752 2941 2342 1648 1922
0 0 0 0 0 0 0 0 0 0 0 0 0 187 790 1232 1511 1942 2022 2143 2272 2455 2529 2546 2944 3835 3575 2988 2945 2797 2764 1836 1707 1287 2181 2008 2498 2480 2789 2603 2342 2403 1893 3340 3004 3050 2522 2324 2159
0 0 0 0 0 0 0 0 0 0 0 0 0 58 377 836 1603 1775 2008 2214 2197 2454 2637 2969 3372 3788 3960 3941 3340 3507 3190 3174 2402 1910 1438 1891 2269 2824 3074 2775 2784 3054 2570 2021 3103 2988 3019 1905 2420
0 0 0 0 0 1 0 12 7 0 0 0 6 15 226 371 512 1071 1656 1844 1897 2592 2748 3079 3734 3800 4122 4275 3550 2751 2050 2538 2610 2489 1744 1570 2804 2948 3005 3353 3176 3280 2530 2471 2556 3096 3141 3092 2210
0 0 0 0 0 0 0 0 46 3 0 1 14 3 4 152 662 537 584 808 858 1013 1575 2159 4087 4698 4270 4418 4020 2935 2646 1637 2478 1431 2335 2836 2888 3039 2528 3131 3353 3583 2669 2946 3023 3279 3242 2251 1950
0 0 0 0 0 2 5 0 13 41 12 9 1 1 0 44 270 775 970 1128 1128 1142 1079 1037 1974 3457 4706 4041 4230 4553 4703 3636 2394 2533 2074 2189 1800 2474 2830 2926 3572 3759 3264 3350 3214 3799 3635 3295 2580
0 0 0 12 46 62 2 0 0 0 0 0 0 0 0 28 282 480 703 715 898 932 1098 877 1314 2198 3016 3914 3877 4363 4500 4361 3632 3417 2516 696 2052 1971 3002 3214 3445 3473 3928 3787 3639 4002 3582 3537 2849
0 0 0 0 7 3 2 0 35 0 0 0 0 0 0 2 0 121 382 570 686 709 892 1065 1327 1876 2318 2499 3303 4506 4001 3771 3891 3836 3215 2737 2452 2440 3383 3573 3567 3923 3837 4014 4399 3410 3263 3557 3584
0 0 0 0 0 0 5 17 8 0 0 0 0 0 6 20 56 62 344 519 686 799 696 1065 1250 1695 2073 2227 2706 4090 4391 4751 4099 4139 3802 2940 3099 3260 4011 4121 3814 4051 3785 4090 4171 3389 3906 3928 3697
0 0 0 0 4 3 19 11 39 48 16 11 6 5 1 0 92 92 106 207 540 718 739 759 963 1277 1662 2039 2311 2746 3170 3457 4524 4052 3896 3749 3694 3800 3678 3994 4070 3954 3981 3878 4157 3431 3589 4006 3058
0 0 1 0 0 0 9 13 14 4 14 0 0 0 2 0 47 200 475 539 693 686 691 828 949 1185 1322 1619 2038 2229 3011 3618 3416 3726 3686 3570 3728 3647 3736 3909 3650 4165 4134 4005 3888 3771 3407 3578 3848
0 0 0 3 0 12 6 0 15 0 0 0 0 0 0 127 220 274 345 373 519 795 945 998 1123 1389 1492 1579 1698 1723 1944 2265 3069 3115 3549 3548 3590 3172 3596 3701 3669 3751 3642 3955 3980 3879 3016 3348 3531
CIN
-400 -341 -128 -89 -0 -2 -0 -0 -0 -73 -51 -0 -20 -20 -16 -41 -0 -0 -11 -0 -1 -5 -0 -0 -4 -0 -10 -0 -0 -0 -0 -0 -0 -0 -0 -0 -0 -0 -0 -0 -0 -0 -0 -0 -0 -0 -0 -0 -0
-180 -147 -113 -40 -25 -0 -0 -0 -4 -0 -1 -58 -0 -31 -0 -14 -12 -21 -33 -1 -1 -8 -0 -0 -1 -9 -7 -3 -0 -0 -0 -0 -0 -0 -0 -0 -0 -0 -0 -0 -0 -0 -0 -0 -0 -0 -0 -0 -0
-181 -137 -37 -0 -5 -1 -0 -1 -0 -0 -0 -0 -34 -0 -43 -13 -21 -27 -44 -6 -0 -4 -0 -0 -0 -1 -4 -1 -0 -0 -0 -0 -0 -0 -0 -0 -0 -0 -0 -0 -0 -0 -0 -0 -0 -0 -0 -0 -0
-81 -16 -11 -153 -0 -1 -0 -0 -0 -0 -0 -0 -0 -1 -37 -37 -37 -14 -56 -6 -1 -0 -0 -1 -0 -0 -0 -0 -0 -0 -0 -0 -0 -0 -0 -0 -0 -0 -0 -0 -0 -0 -0 -0 -0 -0 -0 -0 -0
-24 -4 -15 -1 -0 -1 -0 -0 -1 -0 -0 -0 -0 -3 -35 -44 -49 -59 -51 -23 -0 -0 -19 -2 -0 -0 -0 -0 -0 -0 -0 -0 -0 -0 -0 -0 -0 -0 -0 -0 -0 -0 -0 -0 -0 -0 -0 -0 -0
-2 -53 -37 -0 -0 -1 -0 -1 -2 -0 -0 -1 -0 -0 -11 -55 -90 -72 -56 -35 -0 -0 -9 -6 -0 -0 -0 -0 -0 -0 -0 -0 -0 -0 -0 -0 -0 -0 -0 -0 -1 -0 -0 -0 -1 -0 -0 -0 -0
-0 -0 -0 -1 -0 -0 -0 -0 -0 -0 -0 -0 -0 -2 -39 -76 -95 -91 -72 -45 -0 -0 -0 -0 -1 -0 -0 -0 -0 -0 -0 -0 -0 -0 -0 -0 -0 -0 -0 -0 -1 -1 -0 -3 -0 -0 -0 -0 -0
-6 -2 -0 -0 -0 -0 -9 -1 -7 -3 -19 -8 -14 -0 -5 -54 -131 -121 -85 -47 -5 -0 -0 -6 -0 -1 -0 -0 -0 -3 -0 -0 -0 -0 -1 -3 -0 -0 -0 -3 -1 -2 -0 -0 -0 -0 -0 -0 -0
-71 -0 -0 -3 -2 -9 -14 -0 -0 -42 -14 -15 -9 -3 -3 -91 -141 -136 -115 -71 -18 -0 -0 -0 -0 -0 -0 -0 -0 -0 -1 -1 -0 -0 -0 -1 -0 -1 -0 -1 -6 -0 -0 -0 -0 -0 -0 -0 -0
-54 -0 -10 -36 -15 -49 -0 -0 -0 -5 -0 -0 -0 -27 -37 -118 -152 -136 -141 -93 -50 -20 -0 -0 -0 -3 -0 -0 -0 -0 -5 -0 -0 -0 -0 -0 -4 -1 -1 -3 -3 -0 -0 -0 -0 -0 -0 -5 -0
-41 -6 -4 -8 -76 -11 -0 -0 -0 -0 -26 -0 -0 -17 -55 -100 -137 -130 -128 -98 -55 -18 -1 -0 -0 -5 -0 -1 -2 -2 -0 -1 -0 -8 -0 -1 -3 -9 -1 -0 -0 -0 -1 -0 -0 -0 -0 -9 -2
-0 -0 -0 -0 -0 -0 -0 -0 -0 -0 -0 -0 -0 -6 -53 -84 -105 -97 -103 -90 -69 -31 -7 -2 -1 -1 -1 -0 -0 -0 -0 -0 -0 -9 -1 -0 -3 -0 -0 -5 -15 -0 -1 -1 -0 -3 -4 -1 -5
-0 -0 -0 -0 -0 -0 -0 -0 -0 -0 -0 -0 -0 -7 -40 -58 -61 -62 -78 -80 -73 -60 -23 -1 -0 -0 -0 -0 -0 -0 -1 -0 -1 -23 -4 -14 -6 -0 -0 -10 -8 -3 -8 -1 -1 -3 -3 -1 -1
-0 -0 -0 -0 -0 -0 -0 -0 -0 -0 -0 -0 -0 -0 -22 -45 -47 -39 -44 -59 -81 -83 -61 -8 -0 -0 -0 -0 -0 -0 -0 -0 -1 -0 -1 -0 -8 -0 -1 -6 -4 -2 -9 -1 -0 -3 -37 -1 -7
-0 -0 -0 -0 -0 -0 -0 -0 -0 -0 -0 -0 -0 -0 -19 -32 -54 -48 -44 -55 -87 -80 -70 -29 -5 -10 -1 -0 -0 -0 -0 -0 -0 -0 -0 -0 -7 -0 -0 -1 -6 -8 -1 -1 -1 -0 -0 -3 -0
-0 -0 -0 -0 -0 -0 -0 -0 -0 -0 -0 -0 -0 -0 -20 -19 -36 -61 -55 -56 -81 -92 -62 -25 -30 -18 -7 -0 -0 -0 -0 -3 -0 -2 -2 -0 -1 -0 -2 -3 -1 -1 -4 -3 -4 -0 -0 -1 -2
-0 -0 -0 -0 -0 -0 -0 -0 -0 -0 -0 -0 -0 -0 -24 -21 -25 -58 -57 -47 -56 -77 -36 -20 -14 -55 -16 -0 -8 -2 -0 -0 -1 -0 -0 -0 -0 -0 -0 -3 -23 -1 -0 -21 -7 -10 -3 -11 -0
-0 -0 -0 -0 -0 -0 -0 -0 -0 -0 -0 -0 -0 -0 -33 -16 -33 -23 -42 -41 -36 -73 -74 -17 -13 -1 -0 -4 -0 -10 -14 -13 -3 -3 -2 -1 -0 -0 -0 -6 -1 -0 -1 -3 -0 -2 -1 -4 -5
-0 -0 -0 -0 -0 -0 -0 -0 -0 -0 -0 -0 -0 -11 -12 -3 -12 -34 -52 -40 -18 -44 -64 -8 -1 -0 -0 -1 -5 -8 -38 -21 -15 -12 -0 -0 -4 -0 -0 -1 -1 -0 -0 -0 -0 -0 -0 -0 -2
-0 -0 -0 -0 -0 -0 -0 -0 -0 -0 -0 -0 -0 -9 -1 -5 -20 -21 -38 -33 -20 -21 -19 -33 -10 -0 -0 -2 -9 -1 -2 -4 -13 -8 -0 -1 -1 -0 -1 -0 -0 -0 -0 -0 -0 -0 -1 -1 -0
-0 -0 -0 -0 -0 -0 -0 -0 -0 -0 -0 -0 -0 -52 -33 -31 -30 -17 -14 -6 -5 -12 -14 -5 -3 -0 -0 -0 -3 -3 -3 -0 -2 -3 -0 -2 -0 -0 -0 -2 -0 -1 -0 -0 -1 -0 -0 -0 -1
-0 -0 -0 -0 -0 -0 -0 -0 -14 -0 -0 -0 -0 -11 -26 -45 -74 -67 -45 -21 -6 -0 -6 -14 -2 -0 -0 -0 -0 -36 -136 -19 -3 -0 -0 -21 -0 -0 -0 -0 -0 -1 -0 -1 -3 -1 -0 -0 -0
-0 -0 -0 -0 -0 -0 -0 -0 -5 -9 -0 -0 -0 -1 -17 -38 -47 -64 -93 -121 -133 -117 -66 -40 -0 -0 -0 -0 -0 -2 -50 -64 -0 -118 -28 -1 -20 -0 -0 -0 -0 -0 -0 -1 -1 -0 -0 -0 -0
-0 -0 -0 -0 -0 -0 -0 -0 -0 -1 -1 -0 -0 -0 -0 -24 -36 -53 -69 -78 -90 -103 -120 -157 -87 -3 -2 -2 -1 -0 -0 -0 -1 -43 -77 -26 -120 -18 -0 -0 -0 -0 -0 -0 -0 -0 -0 -0 -0
-0 -0 -0 -0 -0 -0 -7 -0 -0 -0 -0 -0 -0 -0 -0 -21 -5 -28 -62 -78 -82 -100 -120 -151 -152 -69 -7 -2 -45 -0 -0 -0 -0 -6 -44 -241 -21 -62 -11 -0 -0 -0 -0 -0 -0 -0 -0 -0 -0
-0 -0 -0 -0 -0 -0 -2 -0 -0 -0 -0 -0 -0 -0 -0 -0 -0 -42 -43 -72 -73 -95 -103 -124 -130 -86 -41 -16 -0 -0 -0 -0 -0 -0 -1 -11 -6 -5 -1 -3 -0 -0 -0 -0 -0 -0 -0 -0 -0
-0 -0 -0 -0 -0 -0 -0 -0 -0 -0 -0 -0 -0 -0 -1 -8 -41 -48 -34 -34 -54 -68 -83 -85 -101 -87 -46 -38 -4 -0 -0 -0 -0 -0 -3 -8 -18 -0 -0 -0 -0 -0 -0 -0 -0 -0 -0 -0 -0
-0 -0 -0 -0 -0 -0 -0 -0 -0 -7 -0 -0 -1 -0 -1 -0 -55 -64 -61 -31 -14 -26 -63 -73 -76 -76 -62 -21 -15 -2 -7 -1 -0 -0 -0 -0 -1 -2 -12 -2 -0 -0 -0 -0 -0 -0 -0 -0 -0
-0 -0 -0 -0 -0 -0 -0 -0 -11 -5 -3 -0 -0 -0 -3 -0 -56 -37 -27 -11 -8 -13 -17 -28 -45 -59 -68 -37 -5 -14 -0 -0 -0 -0 -0 -0 -0 -0 -0 -0 -1 -0 -0 -0 -0 -0 -0 -0 -0
-0 -0 -0 -0 -0 -0 -0 -0 -0 -0 -0 -0 -0 -0 -0 -12 -6 -4 -4 -7 -3 -0 -9 -12 -20 -17 -14 -19 -21 -23 -8 -0 -0 -0 -0 -0 -0 -2 -0 -0 -0 -0 -0 -0 -0 -0 -0 -0 -0
Wind_Speed
12 15 7 8 8 3 15 18 17 18 18 15 12 13 10 16 17 8 18 16 24 22 19 15 14 17 17 14 14 16 17 16 17 16 16 16 16 16 16 15 14 13 13 13 13 14 13 12 13
14 6 8 7 7 12 13 15 16 14 6 8 15 13 13 15 13 19 17 17 21 20 18 18 13 17 17 15 14 15 16 17 16 15 15 15 14 14 14 14 13 12 11 12 11 12 12 11 11
17 7 11 7 2 13 13 15 8 11 10 15 12 15 16 13 15 15 21 19 22 19 19 19 16 17 17 15 14 14 16 15 15 15 15 15 13 13 13 12 12 12 10 10 10 10 11 10 10
7 7 7 5 11 14 14 12 10 13 10 9 10 13 11 15 15 20 22 19 19 19 22 18 17 17 18 17 15 13 15 15 14 14 14 13 13 12 13 11 10 10 10 9 9 9 10 9 9
11 5 6 4 12 9 12 9 7 10 10 12 16 18 14 11 16 24 22 19 17 21 21 17 15 16 16 16 15 14 14 13 14 13 14 13 11 11 12 11 11 9 9 8 7 9 8 9 9
10 11 5 9 12 10 10 10 12 11 11 5 12 16 13 13 19 22 21 20 16 22 20 18 15 14 14 16 15 14 15 14 14 14 13 13 11 10 10 10 9 8 8 7 7 8 8 8 9
16 11 8 4 7 12 10 4 11 7 14 12 7 16 12 16 19 20 19 18 17 19 19 17 15 14 13 14 15 14 14 14 13 12 11 12 11 9 8 8 8 7 7 7 7 8 8 8 9
9 6 2 4 6 13 10 8 9 12 14 4 6 6 14 19 21 20 18 18 17 16 20 17 16 13 11 10 12 13 14 13 13 12 12 11 10 10 9 7 7 7 7 7 8 8 8 8 8
8 8 3 6 8 11 8 7 8 1 3 4 6 10 14 22 23 21 19 18 15 14 17 18 17 11 14 12 11 11 12 12 11 10 10 9 10 10 12 12 13 9 9 8 9 8 8 9 8
11 9 4 4 7 6 8 6 3 4 6 12 9 9 20 21 21 21 20 19 19 18 16 16 17 14 11 11 11 11 8 7 9 9 11 10 4 7 8 14 12 10 9 9 8 8 8 10 10
7 10 10 4 2 8 11 10 8 5 6 11 7 15 19 18 19 19 20 19 19 18 14 14 17 18 14 11 10 5 8 9 8 8 8 7 3 2 4 6 7 8 9 8 9 9 8 12 10
9 9 5 9 9 10 12 11 9 10 12 7 5 9 18 19 19 18 18 18 19 18 17 16 14 16 16 10 12 11 10 9 9 11 9 5 3 5 5 3 6 5 7 9 9 8 10 11 10
11 10 7 10 11 12 12 12 11 10 6 2 4 7 18 17 18 17 18 18 19 19 18 17 15 11 10 8 8 7 9 8 9 9 13 7 7 7 6 6 4 6 5 6 6 3 4 6 7
13 11 12 12 4 4 6 6 5 1 5 5 2 5 16 17 19 18 18 18 19 19 19 17 16 13 12 10 7 6 7 8 7 9 11 10 8 7 7 6 5 6 5 7 8 8 4 9 7
10 12 9 4 2 3 6 6 7 2 2 4 3 6 5 19 17 19 18 18 19 18 19 18 17 17 14 12 10 8 8 8 9 6 8 11 7 11 8 8 6 9 9 5 5 5 6 6 7
14 13 10 11 6 5 13 11 10 3 3 3 0 4 4 10 19 17 18 17 18 19 19 18 16 18 17 14 11 9 8 9 8 8 8 10 9 9 9 8 10 8 4 8 7 8 8 8 8
8 6 4 4 3 5 4 9 11 6 3 3 5 3 5 8 9 17 16 16 17 17 17 17 17 20 18 14 12 11 9 9 9 10 10 14 13 12 8 9 5 5 8 6 8 8 8 7 7
10 9 3 3 5 6 6 7 7 3 1 6 7 2 6 6 9 14 13 15 16 16 16 16 14 15 15 12 9 10 9 10 10 10 10 14 12 13 12 10 8 7 9 5 6 5 6 8 8
6 7 7 3 3 10 5 3 5 3 6 10 8 6 6 6 9 13 10 12 15 15 15 14 14 12 12 11 12 11 12 11 10 11 12 11 12 15 13 12 11 9 11 8 8 8 9 8 6
9 9 8 3 2 8 4 3 4 3 6 7 11 10 11 11 8 11 11 11 12 13 14 14 14 12 12 11 8 9 9 11 11 11 10 13 14 13 13 13 11 13 10 9 10 10 9 8 6
12 10 7 8 3 12 7 13 10 12 7 10 12 11 12 11 10 8 9 11 13 13 13 14 14 14 14 14 10 8 7 9 10 10 11 13 14 14 15 15 12 10 11 12 13 12 13 10 8
14 5 6 9 10 9 3 1 12 9 9 8 10 11 11 11 10 9 7 5 2 8 13 11 12 14 13 14 12 13 8 12 8 8 11 12 16 14 15 14 15 12 12 12 11 10 10 10 9
8 6 6 9 12 13 12 7 13 11 8 8 11 9 10 8 9 8 9 7 5 3 3 3 12 14 13 15 16 14 15 12 10 6 8 13 12 16 16 16 14 14 12 12 12 10 11 11 11
7 10 15 14 13 13 10 4 4 9 7 9 9 7 6 6 9 8 8 6 4 5 4 2 2 7 13 13 17 18 15 14 12 12 11 9 12 13 16 17 15 14 14 14 12 12 12 12 10
11 16 11 8 10 3 8 5 7 9 7 6 8 3 4 2 7 5 6 4 3 4 3 1 2 3 7 12 12 18 18 16 18 15 12 11 11 12 15 18 16 14 15 14 13 12 13 13 12
7 9 9 12 10 12 6 6 7 8 7 7 4 4 2 4 7 5 4 4 4 4 4 4 2 4 7 10 13 15 18 13 13 16 14 13 15 12 15 19 17 17 16 16 14 13 12 13 11
4 8 10 10 17 13 12 5 10 10 6 6 1 3 5 6 7 4 3 2 4 5 6 5 4 5 7 9 10 11 13 17 15 18 16 13 12 14 15 18 19 18 18 17 16 13 13 12 12
10 11 11 10 7 11 6 4 8 9 6 3 3 7 7 9 9 9 8 6 5 6 6 6 6 7 8 8 9 8 10 14 14 16 17 17 17 17 13 15 18 18 17 17 16 14 15 13 12
9 11 7 10 9 11 10 4 8 3 3 3 9 12 15 11 9 8 9 8 8 9 8 8 8 7 9 9 8 8 10 10 14 14 16 17 15 17 18 15 15 18 18 17 17 16 15 16 15
10 15 17 10 10 9 11 11 10 7 5 7 9 8 10 10 10 10 9 11 10 9 9 9 9 9 8 8 8 10 11 11 11 12 14 15 16 16 16 16 16 16 16 17 18 18 16 17 15
Wind_Direction
237 241 253 268 269 174 69 64 51 54 45 54 50 54 70 34 12 70 122 124 135 134 129 145 131 138 133 136 129 121 130 129 132 136 129 122 118 123 120 116 116 115 115 111 107 100 95 96 98
231 241 238 272 236 69 68 68 62 51 40 71 35 83 59 63 71 115 118 140 130 129 148 138 138 142 134 139 134 134 137 135 136 136 128 126 119 120 123 123 119 119 118 116 114 107 99 97 97
253 273 273 246 302 52 69 59 79 78 45 41 85 52 44 86 111 117 122 145 132 142 135 122 138 138 139 141 142 144 138 137 136 137 132 130 128 124 124 126 124 121 120 117 117 113 109 105 102
235 207 210 296 71 70 53 56 12 61 49 70 59 100 91 97 129 120 141 144 142 147 123 134 144 141 140 142 143 147 139 143 144 139 139 141 139 133 124 122 127 125 120 114 114 116 115 116 113
235 309 295 82 76 77 90 80 74 90 76 36 60 72 99 102 107 132 145 141 160 133 124 142 147 149 147 141 148 145 146 147 148 146 150 152 149 145 141 137 138 138 126 125 120 118 124 125 126
262 146 276 115 89 82 66 5 25 40 75 93 95 107 96 122 135 143 149 149 163 128 140 138 147 150 150 147 147 149 147 150 151 158 159 160 162 155 153 154 145 143 140 144 140 129 129 130 131
282 304 33 159 108 77 42 347 30 12 45 60 343 71 115 145 144 149 151 157 156 134 143 148 160 155 155 155 152 152 152 156 162 162 164 169 168 166 168 163 158 159 144 136 152 144 140 141 140
291 273 207 346 4 73 65 10 55 15 69 113 346 29 150 139 151 151 156 160 160 154 145 158 157 160 159 167 161 156 162 163 166 168 167 172 178 182 191 165 177 177 148 152 152 155 152 151 157
239 265 99 11 341 21 8 1 51 145 351 111 10 60 116 139 154 157 161 164 168 168 153 160 156 162 160 174 169 167 170 170 172 171 176 170 191 182 163 200 151 167 171 158 157 162 165 153 166
265 285 73 64 325 310 325 346 346 314 321 57 126 104 120 151 161 164 169 170 176 174 172 170 153 155 175 181 151 170 177 177 195 190 171 213 202 172 210 141 158 166 175 161 170 177 175 203 179
289 300 14 280 347 321 315 306 344 319 293 9 42 132 142 161 168 171 176 177 181 177 178 179 155 163 170 196 166 195 182 176 184 181 213 224 153 144 150 146 161 176 184 184 184 179 207 210 238
273 282 296 304 323 298 284 294 296 300 328 315 60 141 153 170 173 176 180 179 181 183 185 180 180 155 176 196 174 181 203 194 182 170 187 183 175 188 168 226 196 196 173 217 197 184 218 196 251
252 282 320 292 292 289 283 270 279 294 290 279 18 156 158 178 174 178 182 184 182 183 188 182 176 167 184 179 183 212 198 201 181 157 171 176 189 184 180 213 247 203 243 181 201 166 219 233 208
322 311 291 273 355 307 289 266 215 109 356 284 283 165 175 177 180 181 183 186 185 181 186 179 176 169 188 188 185 213 202 166 232 190 168 205 168 179 187 200 221 222 221 213 199 155 163 241 213
285 275 250 137 78 324 311 209 101 308 233 224 221 143 170 161 184 184 184 186 183 177 181 177 181 176 188 187 193 199 186 218 198 200 160 187 206 187 185 196 215 227 181 258 248 231 208 219 245
246 246 235 122 298 97 291 127 138 10 294 282 18 100 157 178 172 183 184 183 180 176 178 176 183 181 186 184 189 200 214 205 192 199 166 178 207 203 188 215 200 208 191 186 225 199 221 212 223
193 269 20 109 135 312 276 344 52 334 273 312 278 47 116 152 184 170 181 183 180 181 175 179 181 182 188 184 194 205 207 211 212 198 201 173 197 208 220 234 203 186 221 186 198 206 223 227 249
4 334 33 313 59 308 259 358 63 353 246 65 36 1 139 161 179 141 177 183 181 183 180 187 184 183 184 185 196 196 210 213 221 211 214 165 191 208 197 216 234 189 227 212 217 233 235 227 209
320 293 288 109 63 280 61 347 75 67 68 82 65 67 69 116 125 138 175 185 180 181 181 188 198 188 183 192 196 201 208 206 218 221 210 192 200 202 195 222 190 217 221 209 208 222 237 239 261
277 271 258 174 140 270 289 217 113 117 86 68 91 63 93 111 113 134 169 173 189 175 182 192 200 199 197 201 214 214 211 214 213 222 202 211 197 207 204 219 209 199 221 202 206 213 228 220 222
249 273 333 321 320 241 260 231 177 145 165 129 108 93 74 76 93 117 154 177 182 176 193 203 201 207 201 219 198 226 224 241 210 216 214 201 218 210 212 200 229 208 213 205 204 209 219 230 209
275 61 291 278 276 303 185 68 185 142 161 178 126 114 98 102 102 110 124 144 147 156 191 210 202 212 205 209 206 211 198 224 222 208 224 211 198 218 220 220 203 230 206 234 199 215 221 225 234
36 327 300 294 276 272 254 242 118 185 171 160 109 89 95 90 88 93 97 108 105 129 160 221 198 200 215 202 221 211 231 227 212 227 245 225 191 209 224 216 220 212 228 215 227 208 211 218 239
331 271 244 241 246 246 227 308 285 59 68 121 112 104 98 99 105 104 114 115 102 109 108 71 186 231 195 217 214 233 238 215 230 199 216 235 203 195 216 229 212 218 219 226 214 217 215 223 234
244 260 273 225 230 269 113 279 303 89 80 25 83 113 99 90 96 102 101 74 71 60 55 327 134 242 239 210 215 236 235 234 226 232 213 219 258 205 196 215 214 209 212 223 218 209 223 214 224
317 327 307 305 300 316 340 248 110 66 104 122 151 182 232 57 46 18 28 39 23 2 354 352 340 248 242 242 242 227 230 233 230 225 226 214 221 225 208 198 212 211 212 212 221 222 218 221 221
160 254 3 307 263 244 255 179 158 131 165 181 310 19 23 22 333 343 326 312 298 306 325 319 308 276 263 271 275 253 244 229 229 231 219 234 239 232 212 194 199 205 211 214 209 225 221 220 220
271 336 278 230 266 277 297 317 245 161 183 156 298 344 339 334 322 318 318 314 323 302 287 286 296 290 285 268 278 280 264 252 239 232 228 227 235 237 236 200 195 204 211 213 217 219 221 225 224
183 234 202 277 313 300 293 306 71 7 285 359 328 322 349 329 301 309 316 321 311 298 302 298 290 288 287 287 279 271 281 262 243 237 233 232 232 238 238 220 221 202 208 211 216 222 230 215 220
276 281 282 283 292 298 311 286 18 36 329 301 292 332 324 328 325 322 324 313 308 305 300 297 302 284 275 277 280 272 263 262 263 256 250 241 233 230 234 230 223 223 214 215 212 214 222 230 222